This is the latest recevied weather packets stored in our database for station/object PA1CG-7. If no packets are shown the sender has not sent any weather packets the latest 10 day(s).
| Time | Temp. | Humidity | Pressure | Rain* | Wind** | Luminosity | Snow |
|---|---|---|---|---|---|---|---|
| 1777713136 | 17.22° C | 86% | 1018.5 hPa | 0 mm | - | - | - |
| 1777712536 | 17.22° C | 86% | 1018.3 hPa | 0 mm | - | - | - |
| 1777711936 | 17.22° C | 88% | 1018.3 hPa | 0 mm | - | - | - |
| 1777711336 | 17.22° C | 89% | 1018.2 hPa | 0 mm | - | - | - |
| 1777710736 | 17.22° C | 89% | 1018.2 hPa | 0 mm | - | - | - |
| 1777710136 | 17.22° C | 91% | 1018.1 hPa | 0 mm | - | - | - |
| 1777709536 | 17.22° C | 92% | 1018 hPa | 0 mm | - | - | - |
| 1777708936 | 16.67° C | 92% | 1017.9 hPa | 0 mm | - | - | - |
| 1777708335 | 16.67° C | 92% | 1017.9 hPa | 0 mm | - | - | - |
| 1777707736 | 16.11° C | 91% | 1017.9 hPa | 0 mm | - | - | - |
| 1777707136 | 15.56° C | 90% | 1018 hPa | 0.25 mm | - | - | - |
| 1777706536 | 15.56° C | 89% | 1018 hPa | 0.51 mm | - | - | - |
| 1777705936 | 15.56° C | 89% | 1017.9 hPa | 0.76 mm | - | - | - |
| 1777705335 | 15.56° C | 88% | 1018 hPa | 1.52 mm | - | - | - |
| 1777704735 | 15.56° C | 87% | 1017.9 hPa | 1.78 mm | - | - | - |
| 1777704136 | 15.56° C | 87% | 1017.8 hPa | 1.78 mm | - | - | - |
| 1777703536 | 15.56° C | 86% | 1017.7 hPa | 1.52 mm | - | - | - |
| 1777702935 | 15.56° C | 86% | 1018 hPa | 1.52 mm | - | - | - |
| 1777702336 | 15.56° C | 85% | 1018.2 hPa | 1.02 mm | - | - | - |
| 1777701735 | 16.11° C | 85% | 1018.3 hPa | 0.25 mm | - | - | - |
| 1777701136 | 15.56° C | 84% | 1018.2 hPa | 0 mm | - | - | - |
| 1777700537 | 15.56° C | 84% | 1018.2 hPa | 0 mm | - | - | - |
| 1777699938 | 15.56° C | 85% | 1018.1 hPa | 0 mm | - | - | - |
| 1777699337 | 15° C | 85% | 1018 hPa | 0 mm | - | - | - |
| 1777698737 | 15° C | 85% | 1018 hPa | 0 mm | - | - | - |
* Rain latest hour (hover to see other rain measurements)
** Current wind speed in m/s (hover to see current wind gust speed)